Weather History for Tupelo, MS

Change the Weather History Date:

Monday, February 25, 2013

  Actual Average Record
Temperature  
Mean Temperature 50 °F 49 °F  
Max Temperature 61 °F 60 °F 83 °F (1977)
Min Temperature 39 °F 38 °F 14 °F (1967)
Degree Days  
Heating Degree Days 15 16  
Month to date heating degree days 489 487  
Since 1 July heating degree days 2166 2383  
Cooling Degree Days 0 0  
Month to date cooling degree days 0 0  
Year to date cooling degree days 6 1  
Growing Degree Days 4 (Base 50)    
Moisture  
Dew Point 43 °F    
Average Humidity 68    
Maximum Humidity 86    
Minimum Humidity 50    
Precipitation  
Precipitation 0.33 in 0.19 in 2.50 in (1934)
Month to date precipitation 3.47 4.40  
Year to date precipitation 12.18 8.88  
Snow  
Snow 0.00 in 0.10 in T in (1991)
Month to date snowfall T 0.6  
Since 1 July snowfall T 1.8  
Snow Depth 0.00 in    
Sea Level Pressure  
Sea Level Pressure 29.70 in    
Wind  
Wind Speed 11 mph (SE)    
Max Wind Speed 30 mph    
Max Gust Speed 40 mph    
Visibility 9 miles    
Events Rain , Thunderstorm    
T = Trace of Precipitation, MM = Missing Value Source: NWS Daily Summary

Daily Weather History Graph

Daily Weather History Graph

Search for Another Location

Airport:

Trip Planner

Search our weather history database for the weather conditions in past years. The results will help you decide how hot, cold, wet, or windy it might be!

Date:

Astronomy

Feb. 25, 2013 Rise Set
Actual Time 6:28 AM CST 5:48 PM CST
Civil Twilight 6:03 AM CST 6:13 PM CST
Nautical Twilight 5:34 AM CST 6:42 PM CST
Astronomical Twilight 5:05 AM CST 7:11 PM CST
Moon 5:58 PM CST (2/25) 6:00 AM CST (2/25)
Length of Visible Light 12h 10m
Length of Day
11h 19m
Full, 100% of the Moon is Illuminated
Feb 25
Full
Feb 25
Full
Mar 4
Last Quarter
Mar 11
New
Mar 19
First Quarter

Hourly Weather History & Observations

Time (CST) Temp. Windchill Dew Point Humidity Pressure Visibility Wind Dir Wind Speed Gust Speed Precip Events Conditions
12:53 AM 44.1 °F 40.8 °F 32.0 °F 63% 29.91 in 10.0 mi NE 5.8 mph - N/A   Clear
1:53 AM 39.9 °F 35.1 °F 32.0 °F 73% 29.89 in 10.0 mi NE 6.9 mph - N/A   Clear
2:53 AM 42.1 °F 37.7 °F 30.9 °F 65% 29.86 in 10.0 mi ENE 6.9 mph - N/A   Clear
3:53 AM 39.0 °F 33.4 °F 30.9 °F 73% 29.86 in 10.0 mi NNE 8.1 mph - N/A   Clear
4:53 AM 43.0 °F 38.8 °F 30.9 °F 62% 29.86 in 10.0 mi ENE 6.9 mph - N/A   Mostly Cloudy
5:13 AM 44.6 °F 40.7 °F 30.2 °F 57% 29.85 in 10.0 mi East 6.9 mph - N/A Thunderstorm Thunderstorm
5:27 AM 46.4 °F 41.9 °F 30.2 °F 53% 29.85 in 10.0 mi East 9.2 mph - N/A Thunderstorm Thunderstorm
5:48 AM 46.4 °F 41.5 °F 30.2 °F 53% 29.84 in 10.0 mi East 10.4 mph - N/A   Overcast
5:53 AM 46.9 °F - 30.0 °F 52% 29.84 in 10.0 mi East 9.2 mph - N/A   Overcast
6:16 AM 46.4 °F 41.9 °F 30.2 °F 53% 29.84 in 10.0 mi East 9.2 mph - N/A Thunderstorm Thunderstorm
6:31 AM 46.4 °F 41.5 °F 30.2 °F 53% 29.85 in 10.0 mi East 10.4 mph - N/A   Overcast
6:42 AM 46.4 °F 41.9 °F 30.2 °F 53% 29.85 in 10.0 mi East 9.2 mph - N/A Thunderstorm Thunderstorm
6:53 AM 46.9 °F - 30.0 °F 52% 29.85 in 10.0 mi East 10.4 mph - N/A   Overcast
7:53 AM 46.9 °F - 33.1 °F 59% 29.86 in 10.0 mi ENE 9.2 mph - 0.00 in   Overcast
8:53 AM 48.9 °F - 36.0 °F 61% 29.85 in 10.0 mi East 8.1 mph - 0.01 in   Overcast
9:25 AM 48.2 °F - 39.2 °F 71% 29.85 in 4.0 mi SE 8.1 mph - 0.00 in Rain Light Rain
9:34 AM 48.2 °F - 42.8 °F 82% 29.85 in 2.5 mi ESE 9.2 mph 18.4 mph 0.00 in Rain Light Rain
9:41 AM 48.2 °F - 42.8 °F 82% 29.84 in 8.0 mi ESE 9.2 mph - 0.00 in   Overcast
9:53 AM 50.0 °F - 42.1 °F 74% 29.83 in 10.0 mi ESE 10.4 mph - 0.00 in   Overcast
10:53 AM 52.0 °F - 41.0 °F 66% 29.83 in 10.0 mi SE 9.2 mph - N/A   Overcast
11:53 AM 53.1 °F - 42.1 °F 66% 29.81 in 10.0 mi SE 10.4 mph - N/A   Overcast
12:53 PM 55.0 °F - 44.1 °F 67% 29.77 in 10.0 mi SE 9.2 mph - N/A   Overcast
1:13 PM 55.4 °F - 44.6 °F 67% 29.75 in 10.0 mi SE 13.8 mph - N/A   Overcast
1:53 PM 57.0 °F - 45.0 °F 64% 29.71 in 10.0 mi ESE 13.8 mph 20.7 mph N/A   Overcast
2:53 PM 59.0 °F - 46.9 °F 64% 29.67 in 10.0 mi SE 12.7 mph - N/A   Overcast
3:31 PM 60.8 °F - 48.2 °F 63% 29.65 in 10.0 mi SE 15.0 mph - N/A   Overcast
3:53 PM 60.1 °F - 48.0 °F 64% 29.63 in 10.0 mi SE 11.5 mph - N/A   Overcast
4:53 PM 60.1 °F - 48.9 °F 67% 29.61 in 10.0 mi SSE 10.4 mph - N/A   Overcast
5:53 PM 60.1 °F - 51.1 °F 72% 29.59 in 10.0 mi SSE 13.8 mph 18.4 mph N/A   Overcast
6:53 PM 59.0 °F - 52.0 °F 78% 29.58 in 10.0 mi SE 12.7 mph - 0.00 in Rain , Thunderstorm Light Thunderstorms and Rain
7:50 PM 57.2 °F - 53.6 °F 88% 29.54 in 10.0 mi SSE 13.8 mph 23.0 mph 0.07 in Rain Light Rain
7:53 PM 57.0 °F - 53.1 °F 87% 29.53 in 10.0 mi SE 9.2 mph 23.0 mph 0.07 in Rain Light Rain
8:39 PM 55.4 °F - 53.6 °F 94% 29.49 in 10.0 mi SSE 19.6 mph 29.9 mph 0.02 in   Overcast
8:53 PM 55.9 °F - 52.0 °F 87% 29.48 in 10.0 mi SSE 19.6 mph 33.4 mph 0.02 in   Overcast
9:53 PM 55.0 °F - 52.0 °F 89% 29.42 in 10.0 mi SSE 19.6 mph 36.8 mph 0.02 in   Overcast
10:53 PM 55.0 °F - 52.0 °F 89% 29.39 in 10.0 mi South 20.7 mph 35.7 mph 0.01 in   Overcast
11:00 PM 55.4 °F - 51.8 °F 88% 29.45 in 8.0 mi West 17.3 mph 29.9 mph 0.01 in Rain Rain
11:10 PM 55.4 °F - 51.8 °F 88% 29.45 in 5.0 mi WSW 16.1 mph 26.5 mph 0.03 in Rain Heavy Rain
11:17 PM 55.4 °F - 53.6 °F 94% 29.46 in 3.0 mi WSW 13.8 mph 23.0 mph 0.11 in Rain Heavy Rain
11:21 PM 55.4 °F - 53.6 °F 94% 29.46 in 3.0 mi WSW 10.4 mph 20.7 mph 0.13 in Rain Heavy Rain
11:41 PM 55.4 °F - 53.6 °F 94% 29.45 in 10.0 mi SW 9.2 mph 20.7 mph 0.20 in Rain Light Rain
11:53 PM 55.0 °F - 54.0 °F 96% 29.44 in 10.0 mi SSW 8.1 mph - 0.20 in   Overcast